Home > Weather > Key West > Past weeks

Flag for USA Past Weather in Key West, Florida, USA — Yesterday and Last 2 Weeks

Now
87 °F

Sunny.


Feels Like: 95 °F
Forecast: 79 / 86 °F
Wind: 9 mph from Southeast

Location: Key West International Airport

Current Time: May 24, 2016 at 3:45:19 PM

Latest Report: May 24, 2016 at 3:02 PM


Visibility: 10 mi

Pressure: 30.08 "Hg

Humidity: 65%

Dew Point: 74 °F

Location of Key WestLocation

Past Weather in Key West — Graph

°F

Key West Temperature Yesterday

Maximum temperature yesterday: 87 °F (at 4:53 PM)
Minimum temperature yesterday: 76 °F (at 3:53 AM)
Average temperature yesterday: 81 °F

High & Low Weather Summary for the Past Weeks

 TemperatureHumidityPressure
High87 °F (May 15, 2:53 PM)100% (May 17, 4:53 AM)30.14 "Hg (May 17, 4:53 AM)
Low72 °F (May 19, 8:55 AM)49% (May 9, 1:53 PM)29.91 "Hg (May 22, 4:53 PM)
Average80 °F82%30.03 "Hg
* Reported May 9 1:53 PM — May 24 1:53 PM, Key West, Weather by CustomWeather, © 2016

Note: Actual official high and low records may vary slightly from our data, if they occured in-between our weather recording intervals... More about our weather records

Advertising

Key West Weather History for the Previous 24 Hours

Scroll right to see more
 ConditionsComfort  
Time TempWeatherWind HumidityBarometerVisibility
1:53 PM
Tue, May 24
87 °FSunny.10 mph63%30.09 "Hg10 mi
12:53 PM86 °FSunny.10 mph63%30.09 "Hg10 mi
11:53 AM86 °FSunny.9 mph63%30.08 "Hg10 mi
10:53 AM84 °FSunny.8 mph70%30.07 "Hg10 mi
9:53 AM83 °FSunny.7 mph72%30.06 "Hg10 mi
8:53 AM81 °FSunny.7 mph82%30.04 "Hg10 mi
7:53 AM80 °FSunny.3 mph81%30.03 "Hg10 mi
6:53 AM77 °FPassing clouds.5 mph94%30.01 "Hg10 mi
5:53 AM76 °FPartly cloudy.6 mph91%30.00 "Hg10 mi
4:53 AM79 °FThunderstorms. Passing clouds.3 mph88%29.98 "Hg10 mi
3:53 AM78 °FPassing clouds.3 mph93%29.98 "Hg10 mi
2:53 AM78 °FClear.No wind96%30.00 "Hg10 mi
1:53 AM77 °FClear.No wind96%30.00 "Hg10 mi
12:53 AM79 °FLight rain. Passing clouds.3 mph90%30.02 "Hg10 mi
11:53 PM
Mon, May 23
81 °FPassing clouds.5 mph88%30.03 "Hg10 mi
10:53 PM81 °FLight rain. Passing clouds.3 mph88%30.01 "Hg10 mi
9:53 PM82 °FThundershowers. Partly cloudy.6 mph77%29.99 "Hg10 mi
8:53 PM82 °FSunny.6 mph72%29.97 "Hg10 mi
7:53 PM82 °FSunny.5 mph72%29.95 "Hg10 mi
6:53 PM83 °FPassing clouds.9 mph70%29.95 "Hg10 mi
5:53 PM86 °FPassing clouds.N/A65%29.94 "Hg10 mi
4:53 PM87 °FPassing clouds.9 mph63%29.93 "Hg10 mi
3:53 PM85 °FSunny.8 mph72%29.93 "Hg10 mi
Weather by CustomWeather, © 2016

See weather overviewHow to use our weather pages